Back to catalog

KAZSAT 1

AliveCommunicationsGEO
NORAD 29230·PAYLOAD·🇰🇿 Kazakhstan

Launched Jun 17, 2006 from Baikonur Cosmodrome

Loading…

TLE

FreshSource: Space-Track

Epoch: Sep 14, 2026, 04:16 UTC

1 29230U 06022A   26257.17818388 -.00000295  00000-0  00000-0 0  9999
2 29230  12.0201  35.2280 0006084 193.6797 343.4259  0.99237346 73524

Track KAZSAT 1 in real time with AllMySat

Download on the App Store